TimeCDT,TemperatureF,Dew PointF,Humidity,Sea Level PressureIn,VisibilityMPH,Wind Direction,Wind SpeedMPH,Gust SpeedMPH,PrecipitationIn,Events,Conditions,WindDirDegrees,DateUTC
12:15 AM,33.8,19.4,56,29.80,10.0,South,5.8,-,N/A,,Clear,170,2012-10-08 05:15:00
12:55 AM,32.0,19.4,60,29.79,10.0,Calm,Calm,-,N/A,,Clear,0,2012-10-08 05:55:00
1:15 AM,33.8,19.4,56,29.79,10.0,South,3.5,-,N/A,,Clear,180,2012-10-08 06:15:00
1:35 AM,32.0,19.4,60,29.78,10.0,South,3.5,-,N/A,,Clear,180,2012-10-08 06:35:00
1:55 AM,33.8,19.4,56,29.78,10.0,South,3.5,-,N/A,,Clear,190,2012-10-08 06:55:00
2:15 AM,33.8,19.4,56,29.78,10.0,South,5.8,-,N/A,,Clear,190,2012-10-08 07:15:00
2:55 AM,33.8,19.4,56,29.77,10.0,Calm,Calm,-,N/A,,Clear,0,2012-10-08 07:55:00
3:15 AM,33.8,19.4,56,29.76,10.0,Calm,Calm,-,N/A,,Clear,0,2012-10-08 08:15:00
3:35 AM,33.8,19.4,56,29.75,10.0,Calm,Calm,-,N/A,,Mostly Cloudy,0,2012-10-08 08:35:00
3:55 AM,33.8,19.4,56,29.75,10.0,South,3.5,-,N/A,,Mostly Cloudy,180,2012-10-08 08:55:00
4:15 AM,33.8,19.4,56,29.74,10.0,SSE,3.5,-,N/A,,Scattered Clouds,160,2012-10-08 09:15:00
4:35 AM,33.8,19.4,56,29.74,10.0,South,4.6,-,N/A,,Mostly Cloudy,170,2012-10-08 09:35:00
4:55 AM,35.6,19.4,52,29.73,10.0,South,5.8,-,N/A,,Overcast,170,2012-10-08 09:55:00
5:15 AM,35.6,19.4,52,29.72,10.0,SSE,4.6,-,N/A,,Overcast,150,2012-10-08 10:15:00
5:35 AM,35.6,21.2,56,29.72,10.0,Calm,Calm,-,N/A,,Overcast,0,2012-10-08 10:35:00
5:55 AM,35.6,21.2,56,29.71,10.0,South,4.6,-,N/A,,Overcast,190,2012-10-08 10:55:00
6:15 AM,37.4,21.2,52,29.71,10.0,South,8.1,-,N/A,,Overcast,190,2012-10-08 11:15:00
6:35 AM,37.4,21.2,52,29.70,10.0,SSE,3.5,-,N/A,,Overcast,160,2012-10-08 11:35:00
6:55 AM,37.4,21.2,52,29.69,10.0,South,8.1,-,N/A,,Overcast,180,2012-10-08 11:55:00
7:15 AM,37.4,23.0,56,29.69,10.0,SSE,4.6,-,N/A,,Overcast,160,2012-10-08 12:15:00
7:35 AM,39.2,23.0,52,29.69,10.0,SSE,5.8,-,N/A,,Overcast,160,2012-10-08 12:35:00
7:55 AM,37.4,23.0,56,29.70,10.0,South,4.6,-,N/A,,Overcast,170,2012-10-08 12:55:00
8:15 AM,39.2,23.0,52,29.69,10.0,SSE,5.8,-,N/A,,Overcast,160,2012-10-08 13:15:00
8:35 AM,41.0,23.0,49,29.68,10.0,South,5.8,-,N/A,,Overcast,170,2012-10-08 13:35:00
8:55 AM,41.0,23.0,49,29.67,10.0,SSE,6.9,-,N/A,,Overcast,160,2012-10-08 13:55:00
9:15 AM,42.8,23.0,46,29.65,10.0,SSE,9.2,-,N/A,,Overcast,150,2012-10-08 14:15:00
9:35 AM,42.8,24.8,49,29.65,10.0,South,8.1,-,N/A,,Overcast,170,2012-10-08 14:35:00
9:55 AM,44.6,24.8,46,29.64,10.0,South,8.1,-,N/A,,Overcast,170,2012-10-08 14:55:00
10:15 AM,46.4,26.6,46,29.63,10.0,South,12.7,-,N/A,,Overcast,170,2012-10-08 15:15:00
10:55 AM,48.2,26.6,43,29.60,10.0,South,12.7,-,N/A,,Overcast,170,2012-10-08 15:55:00
11:15 AM,50.0,28.4,43,29.60,10.0,South,15.0,-,N/A,,Mostly Cloudy,180,2012-10-08 16:15:00
11:35 AM,50.0,28.4,43,29.60,10.0,South,17.3,-,N/A,,Mostly Cloudy,190,2012-10-08 16:35:00
11:55 AM,50.0,32.0,50,29.58,10.0,South,9.2,12.7,N/A,Rain,Light Rain,180,2012-10-08 16:55:00
12:15 PM,51.8,32.0,47,29.57,10.0,South,17.3,-,N/A,,Mostly Cloudy,180,2012-10-08 17:15:00
12:55 PM,53.6,32.0,44,29.57,10.0,SSW,19.6,26.5,N/A,,Overcast,210,2012-10-08 17:55:00
1:15 PM,53.6,32.0,44,29.57,10.0,SW,19.6,-,N/A,,Overcast,220,2012-10-08 18:15:00
1:35 PM,50.0,33.8,54,29.57,10.0,SW,13.8,19.6,N/A,,Overcast,230,2012-10-08 18:35:00
1:55 PM,51.8,32.0,47,29.56,10.0,SW,12.7,17.3,N/A,,Overcast,220,2012-10-08 18:55:00
2:15 PM,53.6,33.8,47,29.57,10.0,WSW,16.1,-,N/A,Rain,Light Rain,240,2012-10-08 19:15:00
2:35 PM,53.6,33.8,47,29.56,10.0,WSW,13.8,20.7,N/A,Rain,Light Rain,250,2012-10-08 19:35:00
2:55 PM,55.4,33.8,44,29.56,10.0,West,16.1,19.6,N/A,,Overcast,260,2012-10-08 19:55:00
3:15 PM,59.0,35.6,42,29.57,10.0,West,17.3,24.2,N/A,,Scattered Clouds,270,2012-10-08 20:15:00
3:35 PM,59.0,35.6,42,29.57,10.0,West,20.7,31.1,N/A,,Clear,280,2012-10-08 20:35:00
3:55 PM,59.0,37.4,45,29.57,10.0,West,17.3,27.6,N/A,,Scattered Clouds,260,2012-10-08 20:55:00
4:15 PM,59.0,37.4,45,29.57,10.0,West,20.7,27.6,N/A,,Overcast,270,2012-10-08 21:15:00
4:35 PM,57.2,39.2,51,29.58,10.0,West,16.1,32.2,N/A,,Overcast,280,2012-10-08 21:35:00
4:55 PM,55.4,37.4,51,29.59,10.0,WNW,16.1,32.2,N/A,,Overcast,290,2012-10-08 21:55:00
5:15 PM,55.4,37.4,51,29.61,10.0,WNW,17.3,23.0,N/A,,Overcast,290,2012-10-08 22:15:00
5:35 PM,53.6,37.4,54,29.63,10.0,WNW,20.7,24.2,N/A,,Overcast,290,2012-10-08 22:35:00
5:55 PM,53.6,37.4,54,29.64,10.0,WNW,18.4,27.6,N/A,,Overcast,300,2012-10-08 22:55:00
6:35 PM,50.0,35.6,58,29.67,10.0,NW,17.3,-,N/A,,Clear,310,2012-10-08 23:35:00
6:55 PM,46.4,35.6,66,29.68,10.0,WNW,8.1,-,N/A,,Clear,290,2012-10-08 23:55:00
7:15 PM,46.4,35.6,66,29.69,10.0,WNW,9.2,-,N/A,,Clear,300,2012-10-09 00:15:00
7:35 PM,44.6,35.6,71,29.69,10.0,WNW,9.2,-,N/A,,Clear,300,2012-10-09 00:35:00
7:55 PM,44.6,35.6,71,29.69,10.0,WNW,4.6,-,N/A,,Clear,290,2012-10-09 00:55:00
8:15 PM,42.8,35.6,76,29.69,10.0,West,5.8,-,N/A,,Clear,260,2012-10-09 01:15:00
8:35 PM,41.0,33.8,76,29.69,10.0,WSW,3.5,-,N/A,,Clear,250,2012-10-09 01:35:00
8:55 PM,39.2,33.8,81,29.70,10.0,SSW,3.5,-,N/A,,Clear,200,2012-10-09 01:55:00
9:35 PM,37.4,32.0,81,29.70,10.0,SW,3.5,-,N/A,,Clear,220,2012-10-09 02:35:00
9:55 PM,37.4,33.8,87,29.70,10.0,Calm,Calm,-,N/A,,Clear,0,2012-10-09 02:55:00
10:15 PM,37.4,33.8,87,29.70,10.0,SW,3.5,-,N/A,,Scattered Clouds,230,2012-10-09 03:15:00
10:55 PM,37.4,33.8,87,29.71,10.0,SW,6.9,-,N/A,,Clear,230,2012-10-09 03:55:00
11:15 PM,39.2,33.8,81,29.71,10.0,WSW,5.8,-,N/A,,Clear,240,2012-10-09 04:15:00
11:35 PM,37.4,33.8,87,29.72,10.0,WSW,6.9,-,N/A,,Clear,240,2012-10-09 04:35:00